Terminal Aerodrome Forecast
Issued by NWS

Home | Current Version | Previous Version | Graphics & Text | Print | Product List | Glossary On
Versions: 1 2 3 4 5 6 7 8 9 10 11 12 13 14
000
FTUS43 KABR 101728
TAFMBG
TAF
KMBG 101728Z 1018/1118 31010KT P6SM FEW250
     FM110600 29016G24KT P6SM SCT250
     FM111500 32021G30KT P6SM OVC015=

USA.gov is the U.S. government's official web portal to all federal, state and local government web resources and services.